sat.trackr.live / text

‹ back to catalog

STARLINK-33805

NORAD 63590 · 2025-076X

PAYLOAD ACTIVE UNKNOWN

§ Identity

Operator
Country
US
Launch date
2025-04-14
Launch site
AFETR
Launch vehicle
Mass (kg)
RCS (m²)

Purposes: comms

External: N2YO · Heavens-Above · Gunter

§ Orbital elements

Epoch: 2026-09-20T03:11:05.244576Z

Period
94.27 min
Inclination
43.0007°
Eccentricity
0.0001336
Mean motion
15.27586263 rev/d
Perigee alt
482.1 km
Apogee alt
483.9 km
Semi-major
6,861.2 km
B*
3.0354e-4
RAAN
303.9412°
Arg perigee
271.5047°
Mean anomaly
88.5652°
Rev number
8,156

§ Raw data

STARLINK-338051 63590U 25076X   26263.13269959  .00008102  00000+0  30354-3 0  99942 63590  43.0007 303.9412 0001336 271.5047  88.5652 15.27586263 81569

JSON: /api/v1/satellites/63590 · /tle

For live sub-satellite position, see the globe view (requires WebGL).

§ Visibility from observer

Set your observer location to see the next 7 days of passes ≥ 10°. The values pass through the URL so the page stays shareable.

No JS? Fill the form by hand. The geolocation button needs JavaScript.